Regional Weather Roundup
Issued by NWS

Home | Current Version | Previous Version | Graphics & Text | Print | Product List | Glossary On
Versions: 1 2 3 4 5 6 7 8 9 10 11 12 13 14 15 16 17 18 19 20 21 22 23 24 25 26 27 28 29 30 31 32 33 34 35 36 37 38 39 40 41 42 43 44 45 46 47 48 49 50
000
ASUS43 KLSX 250459
RWRMO

WEATHER SUMMARY FOR MISSOURI
NATIONAL WEATHER SERVICE SPRINGFIELD MO
1100 PM CST WED DEC 24 2014

NOTE: "FAIR" INDICATES FEW OR NO CLOUDS BELOW 12,000 FEET WITH NO
       SIGNIFICANT WEATHER AND/OR OBSTRUCTIONS TO VISIBILITY.
       CURRENT SKY AND/OR WEATHER CONDITIONS ARE NOT AVAILABLE FOR
       CHILLICOTHE AND FARMINGTON.

MOZ001>031-035>038-043-044-053-054-250600-
...NORTHERN AND WESTERN MISSOURI...

CITY           SKY/WX    TMP DP  RH WIND       PRES   REMARKS
KANSAS CTY INT CLEAR     29  27  92 S9        29.80F WCI  20
KANSAS C DTWN  CLEAR     32  27  81 S6        29.83S WCI  26
LEE`S SUMMIT   CLEAR     31  27  85 S7        29.83S WCI  24
ST JOSEPH      CLEAR     30  27  88 S8        29.79F WCI  22
CHILLICOTHE      N/A     35  29  78 SW8       29.83S WCI  29
KIRKSVILLE     CLOUDY    33  30  88 SW12G20   29.80R WCI  24

$$
MOZ066>068-077>081-088>096-101>105-250600-
...SOUTHWEST MISSOURI...

CITY           SKY/WX    TMP DP  RH WIND       PRES   REMARKS
SPRINGFIELD    CLEAR     28  25  88 S7        29.90S WCI  21
JOPLIN         CLEAR     31  28  89 S9        29.90F WCI  23

$$
MOZ032>034-039>042-045>050-055>058-069>072-250600-
...CENTRAL MISSOURI...

CITY           SKY/WX    TMP DP  RH WIND       PRES   REMARKS
COLUMBIA       CLOUDY    35  29  78 W16G23    29.86R WCI  25
JEFFERSON CITY CLOUDY    37  30  75 W10G17    29.89R WCI  30
ROLLA          CLOUDY    35  30  82 W10       29.86R WCI  27
SEDALIA        CLOUDY    36  30  79 W12G21    29.87S WCI  28
WARRENSBURG    CLEAR     32  30  93 S6        29.86S WCI  26
OSAGE BEACH    CLOUDY    36  27  69 W12G20    29.89S WCI  27

$$
MOZ051-052-059>065-250600-
...EAST CENTRAL MISSOURI...

CITY           SKY/WX    TMP DP  RH WIND       PRES   REMARKS
ST LOUIS INTL  CLOUDY    38  33  82 W7        29.86R
SPIRIT OF STL  CLOUDY    38  34  85 W7        29.86R
ST CHARLES     CLOUDY    37  30  75 W7        29.85R

$$
MOZ072>076-082>087-097>100-106>115-250600-
...SOUTH CENTRAL AND SOUTHEAST MISSOURI...

CITY           SKY/WX    TMP DP  RH WIND       PRES   REMARKS
CAPE GIRARDEAU CLOUDY    40  36  86 W10       29.92R
POPLAR BLUFF   CLOUDY    40  32  73 W13       29.94R
WEST PLAINS    CLOUDY    36  28  73 W12       29.91F WCI  28

$$


USA.gov is the U.S. government's official web portal to all federal, state and local government web resources and services.